[[{"header":{"parameterUnit":"m.s-1","parameterCategory":1,"la1":30.2991,"la2":30.254,"lo1":-89.0895,"lo2":-89.0444,"dy":0.0017,"dx":0.0017,"nx":28,"ny":28,"refTime":"2025-06-09T09:00:00:Z","depth":0,"parameterNumber":2,"parameterNumberName":"U-component_of_WINDS"},"data":[0,0,0,0,0,0,0,0,0,0,0,0,0,0,0,0,0,0,0,0,0,0,0,0,0,0,0,0,0,0,0,0,0,0,0,0,0,0,0,0,0,0,0,0,0,0,0,0,0,0,0,0,0,0,0,0,0,0,3.6591,3.6592,0,3.6701,3.6702,3.6703,3.67,3.6699,3.6697,3.6696,3.6809,3.6813,3.6818,0,0,0,0,0,0,0,0,0,0,0,0,0,3.6379,3.6383,3.6591,3.6592,3.6594,3.6701,3.6702,3.6704,3.67,3.6699,3.6697,3.6695,3.6808,3.6813,3.6818,0,0,0,0,0,0,0,0,0,0,0,0,0,3.6478,3.6384,3.6591,3.6605,3.6607,3.67,3.6702,3.6704,3.6701,3.6699,3.6696,3.6694,3.6806,3.6812,3.6819,3.6905,0,0,3.6839,3.6842,0,0,0,0,0,0,0,0,3.6473,3.6486,3.6602,3.6604,3.6607,3.6684,3.6669,3.6772,3.6701,3.6665,3.6696,3.6693,3.677,3.6779,3.6805,3.6911,3.6915,3.684,3.6844,3.6847,3.6849,0,0,0,0,0,0,0,3.6466,3.6481,3.6635,3.6603,3.6607,3.6606,3.6618,3.6688,3.6729,3.6668,3.6668,3.6681,3.6771,3.6798,3.6807,3.6917,3.684,3.6846,3.685,3.6852,3.7099,3.7101,0,0,0,0,0,0,3.6456,3.6476,3.6631,3.6638,3.6533,3.6612,3.6625,3.6662,3.6728,3.6736,3.6683,3.6681,3.6788,3.68,3.6811,3.6917,3.6847,3.6853,3.6857,3.7096,3.7099,3.7102,0,0,0,0,0,0,3.6451,3.647,3.6627,3.6557,3.6577,3.6618,3.666,3.6665,3.6693,3.6739,3.6746,3.6704,3.6787,3.6802,3.6882,3.692,3.6856,3.6862,3.7093,3.7097,3.7101,3.7128,0,0,0,0,0,0,3.6445,3.6468,3.6501,3.6558,3.658,3.6695,3.6662,3.6669,3.6704,3.6702,3.6761,3.6768,3.6786,3.6872,3.6888,3.6928,3.6867,3.709,3.7095,3.71,3.7124,3.7132,3.7139,0,0,0,0,0,3.6438,3.6505,3.6503,3.6522,3.6623,3.6698,3.6711,3.673,3.6707,3.6741,3.6771,3.6766,3.6913,3.688,3.6899,3.6941,3.7088,3.7094,3.7099,3.712,3.7131,3.7139,0,0,0,0,0,0,3.6453,3.6513,3.6511,3.6599,3.6643,3.6697,3.674,3.674,3.6792,3.6788,3.6809,3.6822,3.6902,3.693,3.6892,3.7028,3.6998,3.7007,3.7007,3.7018,3.7025,3.7017,3.6873,0,0,0,0,0,3.6467,3.6522,3.6571,3.6644,3.6666,3.6699,3.6732,3.6743,3.679,3.6809,3.6844,3.689,3.6947,3.6983,3.7038,3.7127,3.714,3.7166,3.7173,3.718,3.7188,3.7237,3.7249,3.7121,3.7121,3.7121,0,0,3.6495,3.6535,3.6569,3.6648,3.6683,3.674,3.6715,3.6777,3.6819,3.6818,3.6896,3.6923,3.6976,3.7061,3.71,3.7086,3.7226,3.7187,3.7192,3.7197,3.7244,3.7256,3.7267,3.7125,3.7124,3.7124,0,0,3.6577,3.6612,3.6676,3.6712,3.6766,3.6787,3.6803,3.6857,3.6875,3.6952,3.6953,3.7003,3.71,3.7138,3.7169,3.7263,3.7261,3.7281,3.7322,3.7369,3.7379,3.7388,3.7422,3.7434,3.7289,3.7289,3.7289,0,3.6606,3.6692,3.671,3.6771,3.6806,3.6807,3.6872,3.6906,3.6975,3.6999,3.6982,3.7103,3.7138,3.7232,3.7255,3.728,3.7298,3.7275,3.7376,3.7386,3.7394,3.7427,3.7439,3.7291,3.7291,3.729,3.729,0,3.6725,3.6785,3.683,3.6896,3.6935,3.6999,3.7026,3.7064,3.707,3.7093,3.7172,3.7215,3.7277,3.73,3.7308,3.7395,3.7384,3.7372,3.7342,3.7408,3.7439,3.7451,3.7294,3.7293,3.7292,3.7292,0,0,3.6821,3.6895,3.6911,3.6941,3.7,3.7046,3.7109,3.7169,3.7202,3.7249,3.7302,3.7383,3.7372,3.7408,3.7419,3.746,3.7532,3.7443,3.7444,3.7458,3.763,3.764,3.7654,3.7531,3.7533,3.7535,3.7626,0,3.6909,3.7021,3.7038,3.7136,3.719,3.7191,3.7246,3.7287,3.731,3.736,3.7386,3.7443,3.7423,3.7445,3.7486,3.7515,3.7567,3.7508,3.7581,3.7583,3.7568,3.767,3.768,3.7764,3.7638,3.764,3.7641,0,3.7028,3.7077,3.718,3.723,3.7254,3.7303,3.736,3.7407,3.7454,3.7468,3.7507,3.7513,3.7578,3.7545,3.7634,3.7594,3.7624,3.7643,3.7647,3.7655,3.7617,3.7681,3.7791,3.7804,3.7661,3.7659,3.7658,0,3.7088,3.718,3.7253,3.7279,3.7339,3.7373,3.74,3.7445,3.748,3.7529,3.7552,3.7609,3.764,3.7683,3.7704,3.7678,3.7793,3.7761,3.7806,3.7806,3.7831,3.7829,3.7948,3.785,3.785,3.7849,3.7849,0,3.7185,3.7248,3.7281,3.7326,3.7397,3.7415,3.7485,3.7511,3.755,3.76,3.7604,3.7651,3.7676,3.7727,3.7744,3.7815,3.7829,3.7842,3.7846,3.7842,3.7841,3.7863,3.7858,3.7853,3.7852,3.7851,3.7851,0,3.7264,3.7289,3.7369,3.7419,3.7433,3.7483,3.7526,3.757,3.7591,3.7655,3.7671,3.7706,3.7766,3.779,3.7864,3.7875,3.7957,3.7957,3.7941,3.7943,3.7986,3.7982,3.8124,3.8144,3.8032,3.8033,3.8034,0,3.7325,3.7374,3.7428,3.7462,3.7489,3.7544,3.7579,3.7599,3.7636,3.7692,3.7729,3.7789,3.7837,3.7933,3.7965,3.8021,3.8022,3.8068,3.803,3.8025,3.8023,3.802,3.8024,3.8075,3.8076,3.8077,3.8077,0,3.743,3.744,3.7491,3.7545,3.7587,3.7632,3.7675,3.7702,3.7728,3.777,3.783,3.7868,3.7942,3.8001,3.8059,3.8087,3.8087,3.8089,3.8102,3.8099,3.8088,3.8095,3.7961,3.8086,3.8085,3.8084,3.8084,3.8083,3.7503,3.7546,3.759,3.7647,3.7681,3.7721,3.7764,3.7791,3.7842,3.7903,3.7912,3.7977,3.8021,3.8099,3.8128,3.8179,3.8168,3.8187,3.8192,3.8197,3.82,3.8079,3.819,3.819,3.819,3.8189,3.8189,0,3.7609,3.7637,3.7688,3.7748,3.7792,3.7787,3.7834,3.7871,3.7928,3.797,3.8017,3.8086,3.8143,3.8179,3.8236,3.827,3.8271,3.8284,3.8282,3.8289,3.8207,3.819,3.8282,3.8282,3.8282,3.8282,3.8282,3.8282,3.7669,3.7741,3.7755,3.7844,3.7872,3.7935,3.7962,3.7999,3.8032,3.8109,3.8156,3.8178,3.8217,3.8277,3.8329,3.8338,3.8359,3.8373,3.8381,3.8304,3.8295,3.8285,3.8269,3.8377,3.8377,3.8459,3.8459,3.846]},{"header":{"parameterUnit":"m.s-1","parameterCategory":1,"la1":30.2991,"la2":30.254,"lo1":-89.0895,"lo2":-89.0444,"dy":0.0017,"dx":0.0017,"nx":28,"ny":28,"refTime":"2025-06-09T09:00:00:Z","depth":0,"parameterNumber":3,"parameterNumberName":"V-component_of_WINDS"},"data":[0,0,0,0,0,0,0,0,0,0,0,0,0,0,0,0,0,0,0,0,0,0,0,0,0,0,0,0,0,0,0,0,0,0,0,0,0,0,0,0,0,0,0,0,0,0,0,0,0,0,0,0,0,0,0,0,0,0,-0.3819,-0.3819,0,-0.3749,-0.3749,-0.3748,-0.3716,-0.3716,-0.3716,-0.3716,-0.3641,-0.3639,-0.3636,0,0,0,0,0,0,0,0,0,0,0,0,0,-0.3922,-0.3921,-0.3819,-0.3819,-0.3818,-0.375,-0.3749,-0.3748,-0.3716,-0.3716,-0.3716,-0.3716,-0.3641,-0.3639,-0.3636,0,0,0,0,0,0,0,0,0,0,0,0,0,-0.3867,-0.392,-0.382,-0.3794,-0.3791,-0.375,-0.3748,-0.3747,-0.3716,-0.3716,-0.3716,-0.3716,-0.3642,-0.3639,-0.3636,-0.3614,0,0,-0.3626,-0.3625,0,0,0,0,0,0,0,0,-0.3871,-0.3864,-0.3798,-0.3795,-0.3792,-0.3742,-0.3757,-0.3702,-0.3716,-0.3744,-0.3716,-0.3716,-0.3674,-0.3668,-0.3655,-0.361,-0.3607,-0.3626,-0.3624,-0.3623,-0.3622,0,0,0,0,0,0,0,-0.3874,-0.3867,-0.3792,-0.3797,-0.3794,-0.3785,-0.3777,-0.3747,-0.3709,-0.3742,-0.3739,-0.3732,-0.3672,-0.3658,-0.3653,-0.3606,-0.3626,-0.3623,-0.3621,-0.362,-0.3541,-0.354,0,0,0,0,0,0,-0.3883,-0.387,-0.3794,-0.3789,-0.3833,-0.3783,-0.3774,-0.3758,-0.3709,-0.3702,-0.3732,-0.373,-0.3663,-0.3656,-0.365,-0.3621,-0.3623,-0.362,-0.3618,-0.3541,-0.3541,-0.354,0,0,0,0,0,0,-0.3885,-0.3877,-0.3797,-0.3829,-0.3818,-0.3781,-0.3762,-0.3756,-0.3742,-0.3702,-0.3694,-0.3724,-0.3663,-0.3654,-0.3623,-0.3618,-0.3618,-0.3616,-0.3541,-0.3541,-0.3541,-0.3563,0,0,0,0,0,0,-0.3888,-0.3878,-0.387,-0.3829,-0.3817,-0.3773,-0.3762,-0.3755,-0.3737,-0.3735,-0.3693,-0.3686,-0.3662,-0.3628,-0.362,-0.3614,-0.3613,-0.3541,-0.3541,-0.3541,-0.3563,-0.3564,-0.3565,0,0,0,0,0,-0.3892,-0.3878,-0.3869,-0.386,-0.3806,-0.3772,-0.3765,-0.3739,-0.3737,-0.3728,-0.3702,-0.3687,-0.362,-0.3625,-0.3616,-0.3608,-0.3542,-0.3541,-0.3541,-0.3562,-0.3564,-0.3565,0,0,0,0,0,0,-0.3917,-0.3872,-0.3862,-0.3834,-0.3808,-0.3767,-0.3755,-0.3741,-0.3714,-0.3712,-0.3681,-0.3671,-0.3644,-0.3623,-0.363,-0.3585,-0.3579,-0.3577,-0.3599,-0.36,-0.3601,-0.3606,-0.3611,0,0,0,0,0,-0.3919,-0.3897,-0.3858,-0.3837,-0.3825,-0.3793,-0.3777,-0.376,-0.373,-0.3718,-0.369,-0.3661,-0.3633,-0.3615,-0.3588,-0.356,-0.355,-0.355,-0.3551,-0.3552,-0.355,-0.3534,-0.3533,-0.3539,-0.3539,-0.3539,0,0,-0.3923,-0.3896,-0.3884,-0.3842,-0.3819,-0.3796,-0.3783,-0.3758,-0.374,-0.3714,-0.3683,-0.3662,-0.3627,-0.3598,-0.3584,-0.358,-0.3547,-0.3551,-0.3552,-0.355,-0.3533,-0.3533,-0.3532,-0.3538,-0.3538,-0.3538,0,0,-0.3919,-0.3897,-0.3877,-0.3855,-0.3821,-0.38,-0.3796,-0.3757,-0.3743,-0.3712,-0.3692,-0.3669,-0.3622,-0.3599,-0.358,-0.3569,-0.3554,-0.3561,-0.3565,-0.3549,-0.3549,-0.3548,-0.3544,-0.3543,-0.3559,-0.3559,-0.3559,0,-0.3928,-0.3893,-0.3868,-0.3845,-0.3827,-0.3804,-0.3783,-0.3763,-0.3721,-0.3709,-0.3706,-0.3647,-0.3622,-0.3587,-0.3584,-0.3571,-0.3564,-0.3565,-0.3551,-0.355,-0.3549,-0.3545,-0.3543,-0.356,-0.356,-0.356,-0.356,0,-0.3906,-0.3882,-0.387,-0.3832,-0.3813,-0.3791,-0.3762,-0.3746,-0.373,-0.3709,-0.3679,-0.3648,-0.3614,-0.3605,-0.3589,-0.3567,-0.3566,-0.3558,-0.3551,-0.355,-0.3545,-0.3543,-0.3561,-0.3561,-0.3561,-0.356,0,0,-0.3913,-0.3864,-0.386,-0.3843,-0.3804,-0.3785,-0.3762,-0.373,-0.3717,-0.3689,-0.3669,-0.363,-0.3622,-0.3602,-0.3583,-0.357,-0.3562,-0.3563,-0.3561,-0.3563,-0.3537,-0.3543,-0.3542,-0.3553,-0.3552,-0.3552,-0.354,0,-0.3903,-0.3863,-0.3841,-0.3809,-0.3786,-0.3765,-0.3745,-0.3719,-0.3699,-0.3676,-0.3653,-0.3626,-0.3618,-0.3606,-0.3592,-0.3566,-0.3557,-0.3567,-0.3532,-0.3531,-0.3541,-0.3539,-0.3545,-0.3535,-0.3538,-0.3537,-0.3537,0,-0.3886,-0.3861,-0.3828,-0.3793,-0.3783,-0.3765,-0.3735,-0.3714,-0.3683,-0.367,-0.3648,-0.363,-0.3604,-0.3601,-0.3565,-0.3572,-0.3557,-0.3543,-0.3542,-0.3537,-0.3534,-0.3534,-0.3531,-0.353,-0.3534,-0.3534,-0.3534,0,-0.3895,-0.3852,-0.3827,-0.3813,-0.3772,-0.376,-0.3743,-0.3713,-0.3696,-0.3668,-0.3657,-0.3627,-0.361,-0.3587,-0.3561,-0.3561,-0.3527,-0.3522,-0.3514,-0.3515,-0.3507,-0.3508,-0.3502,-0.3498,-0.3498,-0.3498,-0.3499,0,-0.3886,-0.3866,-0.3831,-0.3815,-0.3792,-0.3767,-0.3744,-0.3725,-0.3699,-0.3678,-0.3657,-0.3638,-0.3605,-0.3582,-0.3561,-0.3535,-0.3527,-0.3515,-0.3509,-0.3516,-0.3518,-0.3505,-0.3505,-0.3498,-0.3498,-0.3498,-0.3498,0,-0.3891,-0.3866,-0.3838,-0.3802,-0.3792,-0.3777,-0.3746,-0.373,-0.3709,-0.3684,-0.3676,-0.3643,-0.3615,-0.3587,-0.3549,-0.3535,-0.3508,-0.3501,-0.3519,-0.3515,-0.3509,-0.351,-0.3494,-0.3491,-0.3491,-0.3491,-0.3491,0,-0.3886,-0.3871,-0.3834,-0.382,-0.3803,-0.378,-0.3763,-0.3737,-0.3719,-0.3685,-0.3672,-0.3643,-0.3618,-0.3573,-0.3545,-0.3516,-0.3508,-0.3504,-0.3503,-0.351,-0.3507,-0.3508,-0.3506,-0.3505,-0.3505,-0.3505,-0.3505,0,-0.388,-0.387,-0.3846,-0.3819,-0.38,-0.3776,-0.3752,-0.3741,-0.3711,-0.3692,-0.3664,-0.3645,-0.3606,-0.3577,-0.3545,-0.3525,-0.3509,-0.3506,-0.3502,-0.3509,-0.352,-0.3513,-0.352,-0.3506,-0.3506,-0.3506,-0.3506,-0.3506,-0.388,-0.3866,-0.3838,-0.3813,-0.3793,-0.3771,-0.3754,-0.3733,-0.3709,-0.3677,-0.3663,-0.3634,-0.3605,-0.356,-0.3541,-0.3517,-0.3513,-0.3508,-0.3507,-0.3506,-0.3507,-0.3524,-0.3511,-0.3511,-0.3511,-0.3511,-0.3511,0,-0.3873,-0.3854,-0.3832,-0.38,-0.378,-0.377,-0.3743,-0.3727,-0.3702,-0.3677,-0.3653,-0.3621,-0.3593,-0.3563,-0.3533,-0.352,-0.3512,-0.3513,-0.3513,-0.3509,-0.3513,-0.3519,-0.352,-0.352,-0.352,-0.352,-0.352,-0.352,-0.3867,-0.3842,-0.3828,-0.3793,-0.3774,-0.3747,-0.3733,-0.3713,-0.3693,-0.3658,-0.3635,-0.3617,-0.359,-0.3558,-0.3531,-0.3523,-0.3513,-0.3516,-0.3505,-0.3509,-0.3509,-0.3508,-0.3513,-0.3514,-0.3514,-0.3504,-0.3503,-0.3503]}]]